Weather History for Bangor, ME

Change the Weather History Date:

Thursday, April 26, 2012

  Actual Average Record
Temperature  
Mean Temperature 46 °F 47 °F  
Max Temperature 59 °F 58 °F 76 °F (1991)
Min Temperature 32 °F 36 °F 24 °F (1940)
Degree Days  
Heating Degree Days 19 18  
Month to date heating degree days 482 606  
Since 1 July heating degree days 6159 7329  
Cooling Degree Days 0 0  
Month to date cooling degree days 2 0  
Year to date cooling degree days 2 0  
Moisture  
Dew Point 33 °F    
Average Humidity 64    
Maximum Humidity 92    
Minimum Humidity 35    
Precipitation  
Precipitation T in 0.12 in 1.13 in (1951)
Month to date precipitation 3.21 3.14  
Year to date precipitation 8.11 11.93  
Snow  
Snow 0.00 in 0.00 in 4.00 in (2002)
Month to date snowfall T 3.6  
Since 1 July snowfall 49.1 66.0  
Snow Depth 0.00 in    
Sea Level Pressure  
Sea Level Pressure 29.80 in    
Wind  
Wind Speed 8 mph (SSW)    
Max Wind Speed 24 mph    
Max Gust Speed 30 mph    
Visibility 10 miles    
Events      
T = Trace of Precipitation, MM = Missing Value Source: NWS Daily Summary

Daily Weather History Graph

Daily Weather History Graph

Search for Another Location

Airport:

Trip Planner

Search our weather history database for the weather conditions in past years. The results will help you decide how hot, cold, wet, or windy it might be!

Date:

Astronomy

Apr. 26, 2012 Rise Set
Actual Time 5:31 AM EDT 7:34 PM EDT
Civil Twilight 5:00 AM EDT 8:06 PM EDT
Nautical Twilight 4:21 AM EDT 8:45 PM EDT
Astronomical Twilight 3:38 AM EDT 9:28 PM EDT
Moon 9:02 AM EDT (4/26) No Moon Set
Length of Visible Light 15h 06m
Length of Day
14h 02m
Waxing Crescent, 24% of the Moon is Illuminated
Apr 26
Waxing Crescent
Apr 29
First Quarter
May 5
Full
May 12
Last Quarter
May 20
New

Hourly Weather History & Observations

Time (EDT) Temp. Windchill Dew Point Humidity Pressure Visibility Wind Dir Wind Speed Gust Speed Precip Events Conditions
12:53 AM 43.0 °F 39.5 °F 33.1 °F 68% 29.79 in 10.0 mi West 5.8 mph - N/A   Clear
1:53 AM 41.0 °F 37.1 °F 33.1 °F 73% 29.79 in 10.0 mi West 5.8 mph - N/A   Clear
2:53 AM 39.9 °F 35.1 °F 33.1 °F 77% 29.80 in 10.0 mi West 6.9 mph - N/A   Clear
3:53 AM 37.9 °F - 32.0 °F 79% 29.81 in 10.0 mi Calm Calm - N/A   Clear
4:53 AM 37.0 °F 33.3 °F 32.0 °F 82% 29.83 in 10.0 mi West 4.6 mph - N/A   Partly Cloudy
5:53 AM 32.0 °F 28.7 °F 30.0 °F 92% 29.84 in 10.0 mi West 3.5 mph - N/A   Scattered Clouds
6:53 AM 39.9 °F 37.8 °F 34.0 °F 79% 29.86 in 10.0 mi WSW 3.5 mph - N/A   Partly Cloudy
7:53 AM 46.0 °F 43.1 °F 34.0 °F 63% 29.87 in 10.0 mi West 5.8 mph - N/A   Clear
8:53 AM 48.0 °F - 33.1 °F 56% 29.87 in 10.0 mi Variable 5.8 mph - N/A   Partly Cloudy
9:53 AM 51.1 °F - 30.0 °F 44% 29.88 in 10.0 mi West 8.1 mph - N/A   Scattered Clouds
10:53 AM 54.0 °F - 30.9 °F 41% 29.88 in 10.0 mi SSW 8.1 mph 18.4 mph N/A   Scattered Clouds
11:53 AM 55.9 °F - 30.0 °F 37% 29.85 in 10.0 mi SW 10.4 mph 17.3 mph N/A   Scattered Clouds
12:53 PM 55.9 °F - 30.0 °F 37% 29.83 in 10.0 mi WSW 10.4 mph 19.6 mph N/A   Mostly Cloudy
1:53 PM 57.9 °F - 33.1 °F 39% 29.82 in 10.0 mi South 13.8 mph - N/A   Mostly Cloudy
2:53 PM 57.0 °F - 32.0 °F 39% 29.82 in 10.0 mi South 18.4 mph 27.6 mph N/A   Scattered Clouds
3:53 PM 55.0 °F - 30.9 °F 40% 29.80 in 10.0 mi South 17.3 mph - N/A   Scattered Clouds
4:53 PM 55.0 °F - 28.9 °F 37% 29.79 in 10.0 mi South 21.9 mph 28.8 mph N/A   Scattered Clouds
5:53 PM 51.1 °F - 30.9 °F 46% 29.81 in 10.0 mi South 15.0 mph - N/A   Mostly Cloudy
6:53 PM 48.9 °F - 30.0 °F 48% 29.80 in 10.0 mi SSE 13.8 mph 20.7 mph N/A   Overcast
7:53 PM 48.0 °F - 35.1 °F 61% 29.77 in 10.0 mi SSE 15.0 mph 21.9 mph 0.00 in   Overcast
8:53 PM 46.9 °F - 35.1 °F 63% 29.75 in 10.0 mi South 11.5 mph - N/A   Overcast
9:53 PM 46.0 °F 41.4 °F 37.0 °F 71% 29.73 in 10.0 mi SSE 9.2 mph - N/A   Overcast
10:53 PM 46.0 °F 40.6 °F 37.0 °F 71% 29.71 in 10.0 mi SSE 11.5 mph - N/A   Overcast
11:09 PM 46.4 °F 42.4 °F 37.4 °F 71% 29.70 in 10.0 mi SSE 8.1 mph - N/A   Overcast
11:53 PM 46.0 °F 42.5 °F 37.0 °F 71% 29.66 in 10.0 mi ESE 6.9 mph - 0.00 in   Overcast